Location: Ammerl�gen
(47.2167°N, 9.6000°E)
Time: 11:53:23
(UTC+00:00)

CZ-4 R/B DEB - Pass Details

Date: 25 October 2021
Orbit: 738 x 791 km, 98.5° (Epoch: 26 November)

Event Time Altitude Azimuth Distance (km) Brightness Sun altitude
Exits shadow 20:00:24 22° 288° (WNW) 1,584 ? -38.0°
Drops below altitude 10° 20:03:13 10° 321° (NW) 2,259 ? -38.4°
Sets 20:05:56 0° 335° (NNW) 3,192 ? -38.8°
